Starlink 33695

operational
NORAD ID: 63478 Int'l Des: 2025-070 Owner: SPXS Country: US Constellation: starlink
LEOCIRCULAR

About Starlink 33695

Description loading...

Live Position

Loading 3D Globe...

Upcoming Passes

Altitude History

Altitude vs Time

uPlot chart will show altitude changes over time

Two-Line Element Set

1 63478U 25070U 25354.40234929 .00024929 00000-0 91178-3 0 9999
2 63478 43.0044 343.8190 0002616 288.0234 72.0332 15.27599876 40892
Epoch: Dec 20, 2025 • Age: 12 hours

Current Status

Altitude 486.3 km
Velocity 7.63 km/s
Sub-Earth Point 35.99°N, 63.15°E
Launch Date Apr 6, 2025
Age 0.7 years
Type internet

Technical Details

Classification Payload
Mass 575.00 kg
Dry Mass 530.00 kg
Total Mass 575.00 kg
Length 0.30 m
Diameter 4.10 m
Span 29.00 m
Shape Box + pan
Manufacturer SPXS
Bus Type Starlink V2MO
Phase Status In Orbit
Owner/State SPXS/US

Large Constellations

Loading constellations...